Regional Weather Roundup
Issued by NWS

Home | Current Version | Previous Version | Graphics & Text | Print | Product List | Glossary Off
Versions: 1 2 3 4 5 6 7 8 9 10 11 12 13 14 15 16 17 18 19 20 21 22 23 24 25 26 27 28 29 30 31 32 33 34 35 36 37 38 39 40 41 42 43 44 45 46 47 48 49 50

000
ASUS43 KTOP 281259
RWRKS

WEATHER ROUNDUP FOR KANSAS
NATIONAL WEATHER SERVICE GOODLAND KS
800 AM CDT SAT MAR 28 2015

NOTE:  "FAIR" INDICATES FEW OR NO CLOUDS BELOW 12,000 FEET WITH NO
SIGNIFICANT WEATHER AND/OR OBSTRUCTIONS TO VISIBILITY.

KSZ001>006-013>018-027>032-041>047-281400-
NORTHWEST KANSAS

CITY           SKY/WX    TMP DP  RH WIND       PRES   REMARKS
GOODLAND       CLEAR     41  33  73 W8        30.02R
HAYS           CLEAR     37  27  65 NW5       30.00R
HILL CITY      CLEAR     32  28  85 NE3       30.01R
RUSSELL        CLEAR     31  30  96 NE7       29.98R
$$

KSZ061>065-074>080-084>089-281400-
SOUTHWEST KANSAS

CITY           SKY/WX    TMP DP  RH WIND       PRES   REMARKS
DODGE CITY     CLEAR     48  34  58 W3        30.00R
ELKHART          N/A     48  31  52 W8          N/A
GARDEN CITY    CLEAR     38  33  82 SW6       30.00R
GREAT BEND     CLEAR     30  27  86 W5        29.99R
LIBERAL        CLEAR     43  28  56 NW7       30.03R
$$

KSZ066>073-081>083-090>101-281400-
SOUTHEAST KANSAS

CITY           SKY/WX    TMP DP  RH WIND       PRES   REMARKS
CHANUTE        MOCLDY    41  30  65 SE10      30.09R
COFFEYVILLE    MOCLDY    41  36  82 SE7       30.08S
HUTCHINSON     CLEAR     38  32  79 E5        30.01R
MEDICINE LODGE   N/A     37  35  92 CALM      29.98R
NEWTON         CLEAR     37  27  65 SE6       30.02R
PARSONS        CLOUDY    42  35  76 S6        30.08S
WICHITA INTL   PTCLDY    39  32  76 S7        30.00S
WICHITA JABRA  CLEAR     40  32  73 S10       30.00R WCI  33
WINFIELD       CLEAR     42  33  70 S13       30.02F
$$

KSZ007>012-019>026-033>040-048>060-102>105-281400-
NORTHEAST KANSAS

CITY           SKY/WX    TMP DP  RH WIND       PRES   REMARKS
CONCORDIA      CLEAR     30  24  78 E3        30.05R
EMPORIA        PTCLDY    37  28  70 E10       30.06R WCI  30
LAWRENCE       PTCLDY    36  26  67 E12       30.14R WCI  28
MANHATTAN      CLEAR     38  26  62 E8        30.08R
OLATHE IND     CLOUDY    37  26  64 E10       30.15R WCI  30
OLATHE EXE     CLOUDY    37  27  67 E13       30.14R WCI  29
SALINA         CLEAR     39  30  70 E7        30.04R
TOPEKA BILLARD PTCLDY    38  26  62 E15       30.12R WCI  29
TOPEKA FORBES  MOCLDY    40  26  57 E12       30.10R WCI  33
$$


USA.gov is the U.S. government's official web portal to all federal, state and local government web resources and services.